Location: D�derode
(51.8092°N, 10.1065°E)
Time: 06:27:21
(UTC+00:00)

BREEZE-M DEB (TANK) - Pass Details

Date: 01 December 2020
Orbit: 297 x 20370 km, 49.3° (Epoch: 22 January)

Event Time Altitude Azimuth Distance (km) Brightness Sun altitude
Rises 16:50:54 0° 235° (SW) 2,696 7.9 -14.4°
Reaches altitude 10° 16:53:34 10° 220° (SW) 1,326 5.7 -14.8°
Maximum altitude 16:55:34 24° 161° (SSE) 680 3.3 -15.1°
Enters shadow 16:55:55 23° 143° (SE) 701 3.2 -15.1°
